Погода в Мариуполе

Погода в Мариуполе : погода сейчас, прогноз погоды и архив. Всё, что Вы хотите узнать о погоде в Мариуполе!

Поиск расширенной информации на нашем сайте:

Другие новости

Новости СМИ2

Главная страница сайта

Новости сайта

03.07.2017

Напоминаем, что на нашем специализированном сайте Метеоцентр.Азия вы можете получить высокодетализированные автоматические прогнозы погоды по пунктам России, СНГ и мира в авиационном формате (включающие направление и скорость ветра, видимость, явления погоды, количество и форму облачности, нижнюю и верхнюю границу облачности).


Погода в Мариуполе - сегодня

Время (UTC), дата Ветер
(°,м/с) 
Видим.   Явления Облачность Т
(°С)
Тd
(°С)
f(%) Тe
(°С)
Pmin
(гПа)
dP
(гПа)
Po
(мм)
O2
(г/м3)
Тmin Tmax R s Состояние
почвы
00 18.11.17 090 (В) 20000 м    3/0 верхняя 
[Cs]
+3 +1.2 88 1023.3  -1.3  761  303        598   
03 18.11.17 070 (В) 4000 м  дымка  9/0 верхняя 
[Cc]
+1.2 -0.2 90 -2  1022.4  -1  760  305           
06 18.11.17 070 (В) 4000 м  дымка  10/10 500 м 
[St]
+1.3 +0.2 92 -1  1021.8  -0.6  760  305  +1         
09 18.11.17 090 (В) 4000 м  дымка  10/10 330 м 
[St]
+3.2 +1.4 88 1020.7  -1  759  302          полностью
покрыта
пылью 
12 18.11.17 090 (В) 10 км    9/9 360 м 
[Sc]
+3.2 +0.8 84 +1  1019.4  -1.3  758  302        995  мокрый или
старый снег
10-40% 
15 18.11.17 110 (В) 4000 м  дымка  8/4 300 м верхняя 
[St|Cs]
+2.9 +1.3 89 1019  -0.4  758  302           
18 18.11.17 070 (В) 4000 м  дымка  10/10 500 м 
[St]
+2.7 +1.4 91 +1  1018.1  -0.9  757  302    +3.5       
21 18.11.17 090 (В) 0200 м  туман  ?/?  
+3.5 +3.5 100 +1  1015.9  -2.2  755  300           
00 19.11.17 050 (СВ) 0200 м  туман  ?/?  
+3.7 +3.7 100 +2  1014.9  -0.9  755  299           
03 19.11.17 090 (В) 0200 м  туман  ?/?  
+3.4 +3.4 100 +2  1013.5  -1.4  754  299           
06 19.11.17 090 (В) 0200 м  туман  ?/?  
+3.4 +3.4 100 +2  1013.2  -0.3  753  299  +2.2  +0.4      сухая 
09 19.11.17 070 (В) 1000 м  дымка{туман}  10/10 330 м 
[St]
+4.6 +4.1 97 +4  1012.3  -0.9  753  298           
12 19.11.17 090 (В) 4000 м  дымка{туман}  10/8 660 м средняя 
[Sc|Ac As]
+5.8 +4.9 94 +6  1011.2  -1  752  296          полностью
покрыта
пылью 
15 19.11.17 090 (В) 4000 м  дымка  10/10 480 м 
[Sc]
+5.7 +4.5 92 +5  1010.8  -0.4  752  296          полностью
покрыта
пылью 
18 19.11.17 140 (ЮВ) 4000 м  дымка  8/0 верхняя 
[Cs]
+5.4 +4.7 95 +6  1010.4  -0.4  751  296    +6       
21 19.11.17 340 (С) 4000 м  дымка  9/0 средняя 
[Ac trans]
+6.8 +5.7 93 +8  1010  -0.4  751  294           
00 20.11.17 тихо ()   2000 м  дымка  10/10 570 м 
[Sc]
+6.9 +5.8 93 +7  1009.6  -0.4  751  294           
03 20.11.17 070 (В) 2000 м  дымка  10/10 540 м 
[Sc]
+7.1 +6.2 94 +6  1008.4  -1.2  750  293          полностью
покрыта
пылью 
06 20.11.17 070 (В) 2000 м  дымка  10/10 450 м 
[St]
+5.2 +4.7 97 +4  1008.3  -0.1  750  296  +4.5         
09 20.11.17 110 (В) 4000 м  дымка  10/8 500 м средняя 
[Sc|Ac trans]
+5.3 +4.4 94 +4  1006.4  -1.9  748  295           
12 20.11.17 090 (В) 4000 м  дымка  10/5 600 м средняя 
[Sc|Ac trans]
+7.2 +6.3 94 +6  1004  -2.3  747  292           
15 20.11.17 090 (В) 4000 м  дымка  10/0 средняя, верхняя 
[Ac cast|Cc]
+8.4 +7.5 94 +8  1002.5  -1.5             
18 20.11.17 180 (Ю) 4000 м  дымка  9/0 средняя, верхняя 
[Ac trans|Cs]
+9.4 +8.6 95 +8  1002.2  -0.2  745  289    +10.2      полностью
покрыта
пылью 
21 20.11.17 200 (Ю) 1000 м  дымка  10/10 400 м 
[St]
+9.2 +9 99 +8  1002.4  0.1  746  289           
00 21.11.17 270 (З) 0200 м  туман  ?/?  
+8.7 +8.7 100 +10  1002.3  -0.1  745  290           
Время (UTC), дата Ветер
(°,м/с) 
Видим.   Явления Облачность Т
(°С)
Тd
(°С)
f(%) Тe
(°С)
Pmin
(гПа)
dP
(гПа)
Po
(мм)
O2
(г/м3)
Тmin Tmax R s Состояние
почвы

Для получения пояснительной информации подведите курсор к названию столбца.

ПОГОДА в Мариуполе - архив

Всё, что Вы хотите узнать о погоде в Мариуполе - удобно и подробно!

Выберите нужную дату (начиная с 1 января 2015* года) и нажмите кнопку "Найти".
Будут отображены архивные сводки погоды по пункту Мариуполь, начиная с указанной даты.


Отображать данные в формате CSV (для использования в таблицах Excel)


Внимание! Наш архив погоды предназначен исключительно для личного некоммерческого использования в познавательных целях. Если Вам необходимы официальные справки о состоянии погоды (для производственных, юридических, коммерческих и т.п. целей), обращайтесь в органы Росгидромета.

*Примечание: данная дата относится к архиву по метеостанциям СССР (Россия, СНГ, Балтия).
Архив по метеостанциям Зарубежной Европы и Азии (кроме Китая) хранится 10 дней, по другим регионам земного шара (Китай, Африка, Америка, Австралия, Океания) - 1 день.

Мариуполь - район местоположения метеостанции


Название, широта, долгота, высота метеостанции:
Мариуполь (город) 47°ш. 37.5°д. 70 м над ур. моря [Украина]

Дополнительная информация

В oтличие oт бoльшинства пoгoдных сайтoв мы публикуем пoдрoбную метеoинфoрмацию в детальнoм прoфессиoнальнoм фoрмате.

Характеристики температуры и влажнoсти вoздуха измеряются на высoте 2 м в тени вдали oт зданий и деревьев.
Скoрoсть ветра измеряется на высoте 10 м (на урoвне рoста челoвека скoрoсть ветра ниже в 1.5-2 раза). Если метеoстанция нахoдится в гoрoде или в лесу, тo скoрoсть ветра занижена на 2-4 м/с пo сравнению с oткрытым местoм. Скoрoсть ветра над акватoриями крупных рек и oзёр, а также на вершинах хoлмoв на 2-5 м/с выше, чем в oбычных услoвиях.
Атмoсфернoе давление в разных тoчках местнoсти мoжет значительнo oтличаться oт давления на метеoстанции, в зависимoсти oт услoвий рельефа (при пoдъёме на 10 м давление пoнижается примернo на 1 мм рт.ст.).